Regional Weather Roundup
Issued by NWS

Home | Current Version | Previous Version | Graphics & Text | Print | Product List | Glossary On
Versions: 1 2 3 4 5 6 7 8 9 10 11 12 13 14 15 16 17 18 19 20 21 22 23 24 25 26 27
000
ASUS45 KCYS 231010
RWRWY

WYOMING REGIONAL WEATHER ROUNDUP
NATIONAL WEATHER SERVICE CHEYENNE WY
400 AM MDT TUE MAY 23 2017

NOTE:  "FAIR" INDICATES FEW OR NO CLOUDS BELOW 12,000 FEET
WITH NO SIGNIFICANT WEATHER AND/OR OBSTRUCTIONS TO VISIBILITY.

WYZ001-231100-
YELLOWSTONE NATIONAL PARK

CITY           SKY/WX    TMP DP  RH WIND       PRES   REMARKS
LK YELLOWSTONE   N/A     27  26  96 CALM      30.37S
W YELLOWSTONE  NOT AVBL

$$
WYZ002>013-054>058-071-098>099-231100-
NORTHERN WYOMING

CITY           SKY/WX    TMP DP  RH WIND       PRES   REMARKS
JACKSON        FAIR      36  32  87 N5        30.33R WCI  32
CODY           FAIR      42  34  73 SW7       30.26S
GREYBULL       FAIR      40  35  83 SE5       30.23R
WORLAND        MOCLDY    40  38  93 S8        30.22F WCI  34
SHERIDAN       CLOUDY    42  38  85 CALM      30.22S
BUFFALO        MOCLDY    40  33  76 W7        30.23F
GILLETTE       CLOUDY    41  39  93 W12       30.19S
HULETT         FAIR      37  34  87 S5        30.20R WCI  34
NEWCASTLE      FAIR      36  34  93 N9        30.19S WCI  29

$$
WYZ014>020-022>026-101>103-231100-
CENTRAL WYOMING

CITY           SKY/WX    TMP DP  RH WIND       PRES   REMARKS
BIG PINEY      FAIR      35  32  88 S3        30.34S
PINEDALE       FAIR      30  28  93 NW3       30.36S
DUBOIS         FAIR      30  27  86 NW7       30.33  WCI  23
LANDER         FAIR      36  32  85 CALM      30.26F
RIVERTON       MOCLDY    39  35  86 CALM      30.27S
CASPER         CLOUDY    39  37  92 SW14      30.25R WCI  31
DOUGLAS        CLOUDY    41  37  86 NW9       30.23F

$$
WYZ021-027>030-104>119-231100-
SOUTHERN WYOMING

CITY           SKY/WX    TMP DP  RH WIND       PRES   REMARKS
EVANSTON       MOCLDY    42  35  76 E13       30.32S
KEMMERER         N/A     41  32  70 CALM      30.35
ROCK SPRINGS   CLOUDY    38  33  82 W3        30.33S
DIXON            N/A     30  29  94 CALM      30.36S
RAWLINS        FAIR      32  30  92 CALM      30.31S
SARATOGA       FAIR      32  32 100 S3        30.32S
LARAMIE        FAIR      32  28  85 CALM      30.26S
CHEYENNE       MOCLDY    39  33  79 NW12      30.22F WCI  32
TORRINGTON     FAIR      39  37  92 NW7       30.17F WCI  34
PINE BLUFFS    FAIR      37  36  93 MISG      30.20S

$$




USA.gov is the U.S. government's official web portal to all federal, state and local government web resources and services.